Weather History for Evanston, WY

Change the Weather History Date:

Monday, April 1, 2013

  Actual Average Record
Temperature  
Mean Temperature 38 °F 35 °F  
Max Temperature 43 °F 45 °F 59 °F (2003)
Min Temperature 33 °F 26 °F 3 °F (2008)
Degree Days  
Heating Degree Days 27 30  
Month to date heating degree days 27 30  
Since 1 July heating degree days 6618 7098  
Cooling Degree Days 0 0  
Month to date cooling degree days 0 0  
Year to date cooling degree days 0 0  
Moisture  
Dew Point 32 °F    
Average Humidity 68    
Maximum Humidity 96    
Minimum Humidity 40    
Precipitation  
Precipitation 0.27 in 0.03 in 0.27 in (2013)
Month to date precipitation 0.27 0.03  
Year to date precipitation 1.15 2.04  
Sea Level Pressure  
Sea Level Pressure 29.96 in    
Wind  
Wind Speed 7 mph (South)    
Max Wind Speed 15 mph    
Max Gust Speed 22 mph    
Visibility 6 miles    
Events Fog , Rain , Snow , Thunderstorm    
T = Trace of Precipitation, MM = Missing Value Source: NWS Daily Summary

Daily Weather History Graph

Daily Weather History Graph

Search for Another Location

Airport:

Trip Planner

Search our weather history database for the weather conditions in past years. The results will help you decide how hot, cold, wet, or windy it might be!

Date:

Astronomy

Apr. 01, 2013 Rise Set
Actual Time 7:06 AM MDT 7:49 PM MDT
Civil Twilight 6:38 AM MDT 8:17 PM MDT
Nautical Twilight 6:05 AM MDT 8:50 PM MDT
Astronomical Twilight 5:31 AM MDT 9:24 PM MDT
Moon 1:03 AM MDT (4/1) 10:54 AM MDT (4/1)
Length of Visible Light 13h 38m
Length of Day
12h 42m
Waning Gibbous, 66% of the Moon is Illuminated
Apr 1
Waning Gibbous
Apr 2
Last Quarter
Apr 10
New
Apr 18
First Quarter
Apr 25
Full

Hourly Weather History & Observations

Time (MDT) Temp. Windchill Dew Point Humidity Pressure Visibility Wind Dir Wind Speed Gust Speed Precip Events Conditions
1:53 AM 37.9 °F 30.5 °F 19.9 °F 48% 29.91 in 10.0 mi SSE 11.5 mph - N/A   Overcast
2:53 AM 39.0 °F - 18.0 °F 43% 29.88 in 10.0 mi Calm Calm - N/A   Overcast
3:53 AM 39.9 °F 37.8 °F 19.9 °F 45% 29.85 in 10.0 mi ESE 3.5 mph - N/A   Overcast
4:53 AM 43.0 °F 41.3 °F 27.0 °F 53% 29.83 in 10.0 mi SSE 3.5 mph - N/A   Mostly Cloudy
5:53 AM 41.0 °F 38.0 °F 28.9 °F 62% 29.84 in 10.0 mi South 4.6 mph - N/A   Overcast
6:53 AM 37.0 °F 32.4 °F 26.1 °F 65% 29.88 in 10.0 mi SSW 5.8 mph - N/A   Overcast
7:53 AM 39.9 °F 37.8 °F 28.0 °F 63% 29.90 in 10.0 mi SE 3.5 mph - N/A   Overcast
9:19 AM 37.4 °F 29.8 °F 33.8 °F 87% 30.03 in 10.0 mi SSW 11.5 mph - 0.00 in Rain Light Rain
9:53 AM 37.9 °F 33.5 °F 33.1 °F 83% 29.92 in 10.0 mi SSE 5.8 mph - 0.00 in   Overcast
10:53 AM 43.0 °F 38.8 °F 34.0 °F 71% 29.90 in 10.0 mi East 6.9 mph - N/A   Overcast
12:12 PM 39.2 °F 30.5 °F 33.8 °F 81% 30.03 in 7.0 mi ESE 16.1 mph 21.9 mph 0.00 in Rain , Thunderstorm Light Rain
12:17 PM 35.6 °F 26.6 °F 32.0 °F 87% 30.03 in 2.5 mi SSE 13.8 mph 21.9 mph 0.01 in Snow , Thunderstorm Light Snow
12:19 PM 35.6 °F 26.2 °F 32.0 °F 87% 30.03 in 1.8 mi South 15.0 mph 21.9 mph 0.01 in Snow , Thunderstorm Light Snow
12:21 PM 33.8 °F 25.8 °F 30.2 °F 87% 30.03 in 1.2 mi South 10.4 mph 19.6 mph 0.01 in Snow Light Snow
12:25 PM 33.8 °F 27.0 °F 32.0 °F 93% 30.03 in 0.8 mi South 8.1 mph 19.6 mph 0.01 in Snow Light Snow
12:45 PM 33.8 °F 26.4 °F 32.0 °F 93% 30.02 in 0.5 mi South 9.2 mph - 0.01 in Fog , Snow Snow
12:53 PM 33.1 °F 26.1 °F 32.0 °F 96% 29.99 in 0.8 mi South 8.1 mph - 0.01 in Snow Light Snow
1:25 PM 33.8 °F 26.4 °F 32.0 °F 93% 30.01 in 0.5 mi SW 9.2 mph - 0.00 in Fog , Snow Snow
1:31 PM 33.8 °F 25.3 °F 30.2 °F 87% 30.01 in 1.0 mi SW 11.5 mph - 0.00 in Snow Light Snow
1:39 PM 33.8 °F 25.8 °F 30.2 °F 87% 30.00 in 1.8 mi WSW 10.4 mph - 0.00 in Snow Light Snow
1:45 PM 33.8 °F 25.3 °F 30.2 °F 87% 30.00 in 3.0 mi West 11.5 mph - 0.01 in Snow Light Snow
1:53 PM 34.0 °F 24.2 °F 32.0 °F 92% 29.95 in 4.0 mi West 15.0 mph - 0.03 in Snow Light Snow
2:00 PM 33.8 °F 25.3 °F 32.0 °F 93% 29.99 in 6.0 mi West 11.5 mph - 0.01 in Rain Light Rain
2:11 PM 35.6 °F 29.9 °F 33.8 °F 93% 30.01 in 10.0 mi East 6.9 mph - 0.03 in Rain Light Rain
2:26 PM 35.6 °F - 33.8 °F 93% 30.01 in 10.0 mi Calm Calm - 0.06 in   Overcast
2:41 PM 37.4 °F - 33.8 °F 87% 30.02 in 10.0 mi Calm Calm - 0.09 in Rain Light Rain
2:53 PM 37.0 °F - 34.0 °F 89% 29.95 in 10.0 mi Calm Calm - 0.11 in Rain Light Rain
3:11 PM 37.4 °F - 33.8 °F 87% 30.01 in 8.0 mi Calm Calm - 0.03 in Rain Light Rain
3:39 PM 35.6 °F 27.5 °F 33.8 °F 93% 30.01 in 5.0 mi South 11.5 mph 17.3 mph 0.07 in Snow Light Snow
3:45 PM 35.6 °F 28.6 °F 33.8 °F 93% 30.01 in 2.5 mi South 9.2 mph - 0.08 in Snow Light Snow
3:53 PM 34.0 °F 26.6 °F 33.1 °F 96% 29.95 in 2.5 mi South 9.2 mph - 0.09 in Snow Light Snow
4:00 PM 33.8 °F 25.8 °F 33.8 °F 100% 30.00 in 2.5 mi SSW 10.4 mph - 0.00 in Snow Light Snow
4:12 PM 35.6 °F 29.9 °F 33.8 °F 93% 30.00 in 5.0 mi SSW 6.9 mph - 0.01 in Snow Light Snow
4:31 PM 35.6 °F 31.7 °F 33.8 °F 93% 30.00 in 10.0 mi SSE 4.6 mph - 0.02 in   Overcast
4:53 PM 36.0 °F 31.1 °F 34.0 °F 93% 29.90 in 10.0 mi SSE 5.8 mph - 0.03 in   Overcast
5:53 PM 37.9 °F - 35.1 °F 89% 29.89 in 10.0 mi Calm Calm - 0.00 in   Overcast
6:53 PM 37.9 °F - 35.1 °F 89% 29.91 in 10.0 mi Calm Calm - N/A   Overcast
7:53 PM 37.9 °F - 34.0 °F 86% 29.90 in 10.0 mi Calm Calm - N/A   Overcast
8:53 PM 37.0 °F - 35.1 °F 93% 29.91 in 10.0 mi Calm Calm - N/A   Overcast
9:53 PM 37.0 °F - 34.0 °F 89% 29.92 in 10.0 mi Calm Calm - N/A   Overcast
10:04 PM 37.4 °F - 35.6 °F 93% 29.99 in 10.0 mi Calm Calm - N/A   Overcast
10:28 PM 37.4 °F 33.8 °F 35.6 °F 93% 29.99 in 2.5 mi NNW 4.6 mph - 0.01 in Rain Light Rain
10:30 PM 35.6 °F 31.7 °F 35.6 °F 100% 29.99 in 1.5 mi NNW 4.6 mph - 0.01 in Rain Light Rain
10:38 PM 35.6 °F 30.7 °F 35.6 °F 100% 29.98 in 0.2 mi NNW 5.8 mph - 0.01 in Fog , Rain Light Rain
10:46 PM 35.6 °F 30.7 °F 35.6 °F 100% 29.98 in 1.0 mi NNW 5.8 mph - 0.01 in   Overcast
10:49 PM 35.6 °F 30.7 °F 35.6 °F 100% 29.98 in 4.0 mi NW 5.8 mph - 0.01 in   Overcast
10:53 PM 36.0 °F 32.1 °F 34.0 °F 93% 29.89 in 10.0 mi NW 4.6 mph - 0.01 in   Overcast
11:20 PM 37.4 °F - 33.8 °F 87% 29.98 in 10.0 mi Calm Calm - 0.00 in Rain Light Rain
11:50 PM 37.4 °F 30.3 °F 33.8 °F 87% 29.99 in 7.0 mi ENE 10.4 mph - 0.05 in Rain Rain
11:53 PM 37.0 °F 30.4 °F 34.0 °F 89% 29.90 in 7.0 mi ENE 9.2 mph - 0.05 in Rain Light Rain